Weather History for KSBM - February, 2012

Change the Weather History Date:

Tuesday, February 7, 2012

  Actual Average Record
Temperature  
Mean Temperature 28 °F -  
Max Temperature 34 °F 29 °F 45 °F (2009)
Min Temperature 21 °F 13 °F -10 °F (1972)
Degree Days  
Heating Degree Days 38    
Moisture  
Dew Point 18 °F    
Average Humidity 70    
Maximum Humidity 82    
Minimum Humidity 59    
Precipitation  
Precipitation 0.00 in - - ()
Sea Level Pressure  
Sea Level Pressure 30.39 in    
Wind  
Wind Speed 13 mph (NNE)    
Max Wind Speed 18 mph    
Max Gust Speed 26 mph    
Visibility 10 miles    
Events      
Averages and records for this station are not official NWS values.
T = Trace of Precipitation, MM = Missing Value Source: NWS Daily Summary

Daily Weather History Graph

Daily Weather History Graph

Search for Another Location

Airport or City:

Trip Planner

Search our weather history database for the weather conditions in past years. The results will help you decide how hot, cold, wet, or windy it might be!

Date:

Astronomy

Feb. 07, 2012 Rise Set
Actual Time 7:01 AM CST 5:09 PM CST
Civil Twilight 6:31 AM CST 5:40 PM CST
Nautical Twilight 5:57 AM CST 6:14 PM CST
Astronomical Twilight 5:24 AM CST 6:47 PM CST
Moon 5:22 PM CST (2/7) 6:29 AM CST (2/7)
Length of Visible Light 11h 08m
Length of Day
10h 08m
Full, 100% of the Moon is Illuminated
Feb 7
Full
Feb 7
Full
Feb 14
Last Quarter
Feb 21
New
Feb 29
First Quarter

Hourly Weather History & Observations

Time (CST) Temp. Windchill Dew Point Humidity Pressure Visibility Wind Dir Wind Speed Gust Speed Precip Events Conditions
12:53 AM 34.0 °F 24.6 °F 28.0 °F 79% 30.21 in 10.0 mi NNE 13.8 mph - N/A   Overcast
1:53 AM 33.1 °F 25.5 °F 28.0 °F 82% 30.23 in 10.0 mi NNE 9.2 mph - N/A   Overcast
2:03 AM 33.8 °F 24.8 °F 26.6 °F 75% 30.21 in 10.0 mi NNE 12.7 mph - N/A   Overcast
2:15 AM 33.8 °F 25.3 °F 26.6 °F 75% 30.21 in 10.0 mi NNE 11.5 mph 19.6 mph N/A   Overcast
2:53 AM 32.0 °F 21.2 °F 27.0 °F 82% 30.25 in 10.0 mi NNE 16.1 mph - N/A   Overcast
3:53 AM 30.9 °F 19.8 °F 25.0 °F 79% 30.27 in 10.0 mi NNE 16.1 mph - N/A   Overcast
4:53 AM 30.0 °F 18.7 °F 23.0 °F 75% 30.30 in 10.0 mi NNE 16.1 mph 25.3 mph N/A   Overcast
5:53 AM 28.9 °F 16.5 °F 21.9 °F 75% 30.33 in 10.0 mi NNE 18.4 mph 24.2 mph N/A   Overcast
6:09 AM 28.4 °F 17.5 °F 21.2 °F 74% 30.31 in 10.0 mi NNE 13.8 mph 25.3 mph N/A   Overcast
6:18 AM 28.4 °F 17.5 °F 21.2 °F 74% 30.32 in 10.0 mi NNE 13.8 mph 21.9 mph N/A   Overcast
6:53 AM 28.0 °F 15.3 °F 19.9 °F 72% 30.37 in 10.0 mi NNE 18.4 mph 26.5 mph N/A   Overcast
7:53 AM 27.0 °F 15.6 °F 19.9 °F 75% 30.39 in 10.0 mi NNE 13.8 mph 24.2 mph N/A   Overcast
8:53 AM 26.1 °F 15.0 °F 19.0 °F 75% 30.41 in 10.0 mi North 12.7 mph 18.4 mph N/A   Overcast
9:53 AM 26.1 °F 15.6 °F 19.0 °F 75% 30.43 in 10.0 mi North 11.5 mph 23.0 mph N/A   Overcast
10:53 AM 27.0 °F 14.7 °F 17.1 °F 66% 30.45 in 10.0 mi NNE 16.1 mph 23.0 mph N/A   Overcast
11:53 AM 27.0 °F 15.6 °F 17.1 °F 66% 30.45 in 10.0 mi North 13.8 mph 25.3 mph N/A   Overcast
12:53 PM 26.1 °F 14.5 °F 16.0 °F 66% 30.45 in 10.0 mi North 13.8 mph 20.7 mph N/A   Overcast
1:53 PM 27.0 °F 14.3 °F 15.1 °F 61% 30.43 in 10.0 mi NNE 17.3 mph 21.9 mph N/A   Overcast
2:38 PM 28.4 °F 17.5 °F 15.8 °F 59% 30.41 in 10.0 mi NE 13.8 mph 20.7 mph N/A   Scattered Clouds
2:53 PM 27.0 °F 14.7 °F 15.1 °F 61% 30.45 in 10.0 mi NE 16.1 mph - N/A   Scattered Clouds
3:14 PM 26.6 °F 14.7 °F 15.8 °F 64% 30.42 in 10.0 mi NNE 15.0 mph 20.7 mph N/A   Mostly Cloudy
3:27 PM 26.6 °F 14.7 °F 15.8 °F 64% 30.42 in 10.0 mi NNE 15.0 mph - N/A   Scattered Clouds
3:35 PM 28.4 °F 16.6 °F 15.8 °F 59% 30.42 in 10.0 mi NE 16.1 mph - N/A   Mostly Cloudy
3:53 PM 26.1 °F 16.2 °F 15.1 °F 63% 30.45 in 10.0 mi NNE 10.4 mph - N/A   Scattered Clouds
4:49 PM 24.8 °F 13.4 °F 14.0 °F 64% 30.42 in 10.0 mi NE 12.7 mph - N/A   Mostly Cloudy
4:53 PM 24.1 °F 13.7 °F 15.1 °F 69% 30.45 in 10.0 mi NE 10.4 mph - N/A   Mostly Cloudy
5:04 PM 24.8 °F 14.6 °F 15.8 °F 69% 30.42 in 10.0 mi NE 10.4 mph - N/A   Scattered Clouds
5:53 PM 23.0 °F 13.1 °F 15.1 °F 72% 30.47 in 10.0 mi NNE 9.2 mph - N/A   Clear
6:53 PM 23.0 °F 17.0 °F 14.0 °F 68% 30.47 in 10.0 mi North 4.6 mph - N/A   Clear
7:53 PM 23.0 °F 14.7 °F 16.0 °F 74% 30.46 in 10.0 mi North 6.9 mph - N/A   Clear
8:53 PM 21.9 °F 14.5 °F 15.1 °F 75% 30.45 in 10.0 mi NNW 5.8 mph - N/A   Clear
9:53 PM 21.9 °F 13.4 °F 14.0 °F 72% 30.45 in 10.0 mi NNW 6.9 mph - N/A   Clear
10:53 PM 21.9 °F 15.7 °F 12.0 °F 66% 30.45 in 10.0 mi NNW 4.6 mph - N/A   Clear
11:53 PM 21.0 °F 14.6 °F 12.9 °F 71% 30.45 in 10.0 mi NW 4.6 mph - N/A   Clear